Year,Month,Day,Hour,Minute,Value (Times are PST for windgust in km/hr)
2016,03,04,00,00,32.20
2016,03,04,00,01,27.40
2016,03,04,00,02,35.40
2016,03,04,00,03,22.50
2016,03,04,00,04,32.20
2016,03,04,00,05,25.70
2016,03,04,00,06,25.70
2016,03,04,00,07,27.40
2016,03,04,00,08,22.50
2016,03,04,00,09,19.30
2016,03,04,00,10,14.50
2016,03,04,00,11,22.50
2016,03,04,00,12,22.50
2016,03,04,00,13,24.20
2016,03,04,00,14,27.40
2016,03,04,00,15,25.70
2016,03,04,00,16,16.10
2016,03,04,00,17,16.10
2016,03,04,00,18,16.10
2016,03,04,00,19,22.50
2016,03,04,00,20,25.70
2016,03,04,00,21,27.40
2016,03,04,00,22,27.40
2016,03,04,00,23,17.70
2016,03,04,00,24,27.40
2016,03,04,00,25,22.50
2016,03,04,00,26,16.10
2016,03,04,00,27,24.20
2016,03,04,00,28,29.00
2016,03,04,00,29,29.00
2016,03,04,00,30,33.80
2016,03,04,00,31,19.30
2016,03,04,00,32,20.90
2016,03,04,00,33,27.40
2016,03,04,00,34,29.00
2016,03,04,00,35,22.50
2016,03,04,00,36,30.60
2016,03,04,00,37,30.60
2016,03,04,00,38,22.50
2016,03,04,00,39,16.10
2016,03,04,00,40,35.40
2016,03,04,00,41,30.60
2016,03,04,00,42,30.60
2016,03,04,00,43,17.70
2016,03,04,00,44,25.70
2016,03,04,00,45,29.00
2016,03,04,00,46,27.40
2016,03,04,00,47,24.20
2016,03,04,00,48,25.70
2016,03,04,00,49,24.20
2016,03,04,00,50,19.30
2016,03,04,00,51,24.20
2016,03,04,00,52,33.80
2016,03,04,00,53,29.00
2016,03,04,00,54,29.00
2016,03,04,00,55,29.00
2016,03,04,00,56,24.20
2016,03,04,00,57,29.00
2016,03,04,00,58,32.20
2016,03,04,00,59,29.00
2016,03,04,01,00,24.20
2016,03,04,01,01,30.60
2016,03,04,01,02,35.40
2016,03,04,01,03,30.60
2016,03,04,01,04,29.00
2016,03,04,01,05,37.00
2016,03,04,01,06,32.20
2016,03,04,01,07,24.20
2016,03,04,01,08,38.60
2016,03,04,01,09,38.60
2016,03,04,01,10,43.50
2016,03,04,01,11,22.50
2016,03,04,01,12,43.50
2016,03,04,01,13,32.20
2016,03,04,01,14,27.40
2016,03,04,01,15,38.60
2016,03,04,01,16,29.00
2016,03,04,01,17,33.80
2016,03,04,01,18,38.60
2016,03,04,01,19,41.80
2016,03,04,01,20,43.50
2016,03,04,01,21,33.80
2016,03,04,01,22,30.60
2016,03,04,01,23,32.20
2016,03,04,01,24,24.20
2016,03,04,01,25,46.70
2016,03,04,01,26,45.10
2016,03,04,01,27,35.40
2016,03,04,01,28,46.70
2016,03,04,01,29,27.40
2016,03,04,01,30,25.70
2016,03,04,01,31,40.20
2016,03,04,01,32,38.60
2016,03,04,01,33,38.60
2016,03,04,01,34,41.80
2016,03,04,01,35,46.70
2016,03,04,01,36,33.80
2016,03,04,01,37,45.10
2016,03,04,01,38,40.20
2016,03,04,01,39,27.40
2016,03,04,01,40,46.70
2016,03,04,01,41,46.70
2016,03,04,01,42,35.40
2016,03,04,01,43,45.10
2016,03,04,01,44,35.40
2016,03,04,01,45,38.60
2016,03,04,01,46,38.60
2016,03,04,01,47,46.70
2016,03,04,01,48,27.40
2016,03,04,01,49,40.20
2016,03,04,01,50,30.60
2016,03,04,01,51,38.60
2016,03,04,01,52,33.80
2016,03,04,01,53,33.80
2016,03,04,01,54,29.00
2016,03,04,01,55,30.60
2016,03,04,01,56,43.50
2016,03,04,01,57,38.60
2016,03,04,01,58,38.60
2016,03,04,01,59,46.70
2016,03,04,02,00,27.40
2016,03,04,02,01,40.20
2016,03,04,02,02,43.50
2016,03,04,02,03,37.00
2016,03,04,02,04,32.20
2016,03,04,02,05,32.20
2016,03,04,02,06,40.20
2016,03,04,02,07,43.50
2016,03,04,02,08,30.60
2016,03,04,02,09,32.20
2016,03,04,02,10,38.60
2016,03,04,02,11,35.40
2016,03,04,02,12,38.60
2016,03,04,02,13,40.20
2016,03,04,02,14,53.10
2016,03,04,02,15,19.30
2016,03,04,02,16,29.00
2016,03,04,02,17,53.10
2016,03,04,02,18,48.30
2016,03,04,02,19,32.20
2016,03,04,02,20,29.00
2016,03,04,02,21,29.00
2016,03,04,02,22,33.80
2016,03,04,02,23,37.00
2016,03,04,02,24,24.20
2016,03,04,02,25,27.40
2016,03,04,02,26,30.60
2016,03,04,02,27,45.10
2016,03,04,02,28,37.00
2016,03,04,02,29,33.80
2016,03,04,02,30,35.40
2016,03,04,02,31,24.20
2016,03,04,02,32,38.60
2016,03,04,02,33,37.00
2016,03,04,02,34,32.20
2016,03,04,02,35,37.00
2016,03,04,02,36,30.60
2016,03,04,02,37,35.40
2016,03,04,02,38,40.20
2016,03,04,02,39,41.80
2016,03,04,02,40,33.80
2016,03,04,02,41,38.60
2016,03,04,02,42,32.20
2016,03,04,02,43,45.10
2016,03,04,02,44,48.30
2016,03,04,02,45,32.20
2016,03,04,02,46,29.00
2016,03,04,02,47,30.60
2016,03,04,02,48,35.40
2016,03,04,02,49,37.00
2016,03,04,02,50,33.80
2016,03,04,02,51,24.20
2016,03,04,02,52,37.00
2016,03,04,02,53,30.60
2016,03,04,02,54,43.50
2016,03,04,02,55,37.00
2016,03,04,02,56,35.40
2016,03,04,02,57,30.60
2016,03,04,02,58,37.00
2016,03,04,02,59,43.50
2016,03,04,03,00,40.20
2016,03,04,03,01,25.70
2016,03,04,03,02,40.20
2016,03,04,03,03,40.20
2016,03,04,03,04,37.00
2016,03,04,03,05,25.70
2016,03,04,03,06,40.20
2016,03,04,03,07,32.20
2016,03,04,03,08,29.00
2016,03,04,03,09,29.00
2016,03,04,03,10,30.60
2016,03,04,03,11,32.20
2016,03,04,03,12,24.20
2016,03,04,03,13,29.00
2016,03,04,03,14,30.60
2016,03,04,03,15,27.40
2016,03,04,03,16,32.20
2016,03,04,03,17,33.80
2016,03,04,03,18,32.20
2016,03,04,03,19,32.20
2016,03,04,03,20,33.80
2016,03,04,03,21,40.20
2016,03,04,03,22,41.80
2016,03,04,03,23,24.20
2016,03,04,03,24,46.70
2016,03,04,03,25,35.40
2016,03,04,03,26,35.40
2016,03,04,03,27,32.20
2016,03,04,03,28,30.60
2016,03,04,03,29,35.40
2016,03,04,03,30,35.40
2016,03,04,03,31,38.60
2016,03,04,03,32,32.20
2016,03,04,03,33,33.80
2016,03,04,03,34,43.50
2016,03,04,03,35,43.50
2016,03,04,03,36,29.00
2016,03,04,03,37,37.00
2016,03,04,03,38,41.80
2016,03,04,03,39,46.70
2016,03,04,03,40,45.10
2016,03,04,03,41,29.00
2016,03,04,03,42,37.00
2016,03,04,03,43,43.50
2016,03,04,03,44,41.80
2016,03,04,03,45,45.10
2016,03,04,03,46,38.60
2016,03,04,03,47,45.10
2016,03,04,03,48,33.80
2016,03,04,03,49,43.50
2016,03,04,03,50,32.20
2016,03,04,03,51,32.20
2016,03,04,03,52,41.80
2016,03,04,03,53,35.40
2016,03,04,03,54,37.00
2016,03,04,03,55,37.00
2016,03,04,03,56,41.80
2016,03,04,03,57,43.50
2016,03,04,03,58,48.30
2016,03,04,03,59,35.40
2016,03,04,04,00,30.60
2016,03,04,04,01,32.20
2016,03,04,04,02,41.80
2016,03,04,04,03,37.00
2016,03,04,04,04,35.40
2016,03,04,04,05,40.20
2016,03,04,04,06,29.00
2016,03,04,04,07,41.80
2016,03,04,04,08,33.80
2016,03,04,04,09,37.00
2016,03,04,04,10,33.80
2016,03,04,04,11,45.10
2016,03,04,04,12,37.00
2016,03,04,04,13,43.50
2016,03,04,04,14,29.00
2016,03,04,04,15,40.20
2016,03,04,04,16,46.70
2016,03,04,04,17,40.20
2016,03,04,04,18,48.30
2016,03,04,04,19,33.80
2016,03,04,04,20,37.00
2016,03,04,04,21,41.80
2016,03,04,04,22,43.50
2016,03,04,04,23,29.00
2016,03,04,04,24,32.20
2016,03,04,04,25,40.20
2016,03,04,04,26,46.70
2016,03,04,04,27,43.50
2016,03,04,04,28,54.70
2016,03,04,04,29,45.10
2016,03,04,04,30,45.10
2016,03,04,04,31,43.50
2016,03,04,04,32,41.80
2016,03,04,04,33,24.20
2016,03,04,04,34,37.00
2016,03,04,04,35,35.40
2016,03,04,04,36,29.00
2016,03,04,04,37,38.60
2016,03,04,04,38,43.50
2016,03,04,04,39,25.70
2016,03,04,04,40,29.00
2016,03,04,04,41,48.30
2016,03,04,04,42,48.30
2016,03,04,04,43,43.50
2016,03,04,04,44,38.60
2016,03,04,04,45,33.80
2016,03,04,04,46,29.00
2016,03,04,04,47,32.20
2016,03,04,04,48,41.80
2016,03,04,04,49,43.50
2016,03,04,04,50,35.40
2016,03,04,04,51,35.40
2016,03,04,04,52,32.20
2016,03,04,04,53,40.20
2016,03,04,04,54,27.40
2016,03,04,04,55,30.60
2016,03,04,04,56,32.20
2016,03,04,04,57,51.50
2016,03,04,04,58,40.20
2016,03,04,04,59,37.00
2016,03,04,05,00,25.70
2016,03,04,05,01,35.40
2016,03,04,05,02,32.20
2016,03,04,05,03,33.80
2016,03,04,05,04,30.60
2016,03,04,05,05,30.60
2016,03,04,05,06,22.50
2016,03,04,05,07,30.60
2016,03,04,05,08,25.70
2016,03,04,05,09,38.60
2016,03,04,05,10,24.20
2016,03,04,05,11,29.00
2016,03,04,05,12,32.20
2016,03,04,05,13,38.60
2016,03,04,05,14,30.60
2016,03,04,05,15,20.90
2016,03,04,05,16,29.00
2016,03,04,05,17,25.70
2016,03,04,05,18,30.60
2016,03,04,05,19,29.00
2016,03,04,05,20,37.00
2016,03,04,05,21,53.10
2016,03,04,05,22,32.20
2016,03,04,05,23,40.20
2016,03,04,05,24,32.20
2016,03,04,05,25,27.40
2016,03,04,05,26,30.60
2016,03,04,05,27,35.40
2016,03,04,05,28,48.30
2016,03,04,05,29,61.20
2016,03,04,05,30,46.70
2016,03,04,05,31,38.60
2016,03,04,05,32,30.60
2016,03,04,05,33,45.10
2016,03,04,05,34,24.20
2016,03,04,05,35,30.60
2016,03,04,05,36,33.80
2016,03,04,05,37,33.80
2016,03,04,05,38,38.60
2016,03,04,05,39,29.00
2016,03,04,05,40,45.10
2016,03,04,05,41,32.20
2016,03,04,05,42,29.00
2016,03,04,05,43,32.20
2016,03,04,05,44,33.80
2016,03,04,05,45,32.20
2016,03,04,05,46,22.50
2016,03,04,05,47,25.70
2016,03,04,05,48,22.50
2016,03,04,05,49,37.00
2016,03,04,05,50,38.60
2016,03,04,05,51,56.30
2016,03,04,05,52,51.50
2016,03,04,05,53,33.80
2016,03,04,05,54,27.40
2016,03,04,05,55,29.00
2016,03,04,05,56,29.00
2016,03,04,05,57,22.50
2016,03,04,05,58,32.20
2016,03,04,05,59,33.80
2016,03,04,06,00,33.80
2016,03,04,06,01,41.80
2016,03,04,06,02,32.20
2016,03,04,06,03,37.00
2016,03,04,06,04,19.30
2016,03,04,06,05,27.40
2016,03,04,06,06,33.80
2016,03,04,06,07,32.20
2016,03,04,06,08,32.20
2016,03,04,06,09,25.70
2016,03,04,06,10,20.90
2016,03,04,06,11,24.20
2016,03,04,06,12,30.60
2016,03,04,06,13,32.20
2016,03,04,06,14,22.50
2016,03,04,06,15,32.20
2016,03,04,06,16,29.00
2016,03,04,06,17,25.70
2016,03,04,06,18,29.00
2016,03,04,06,19,40.20
2016,03,04,06,20,32.20
2016,03,04,06,21,30.60
2016,03,04,06,22,40.20
2016,03,04,06,23,38.60
2016,03,04,06,24,25.70
2016,03,04,06,25,37.00
2016,03,04,06,26,27.40
2016,03,04,06,27,51.50
2016,03,04,06,28,32.20
2016,03,04,06,29,35.40
2016,03,04,06,30,22.50
2016,03,04,06,31,33.80
2016,03,04,06,32,29.00
2016,03,04,06,33,17.70
2016,03,04,06,34,22.50
2016,03,04,06,35,29.00
2016,03,04,06,36,25.70
2016,03,04,06,37,20.90
2016,03,04,06,38,29.00
2016,03,04,06,39,24.20
2016,03,04,06,40,22.50
2016,03,04,06,41,40.20
2016,03,04,06,42,41.80
2016,03,04,06,43,32.20
2016,03,04,06,44,43.50
2016,03,04,06,45,33.80
2016,03,04,06,46,33.80
2016,03,04,06,47,38.60
2016,03,04,06,48,27.40
2016,03,04,06,49,45.10
2016,03,04,06,50,29.00
2016,03,04,06,51,25.70
2016,03,04,06,52,37.00
2016,03,04,06,53,32.20
2016,03,04,06,54,35.40
2016,03,04,06,55,24.20
2016,03,04,06,56,33.80
2016,03,04,06,57,30.60
2016,03,04,06,58,35.40
2016,03,04,06,59,22.50
2016,03,04,07,00,24.20
2016,03,04,07,01,33.80
2016,03,04,07,02,30.60
2016,03,04,07,03,30.60
2016,03,04,07,04,27.40
2016,03,04,07,05,25.70
2016,03,04,07,06,29.00
2016,03,04,07,07,30.60
2016,03,04,07,08,29.00
2016,03,04,07,09,24.20
2016,03,04,07,10,22.50
2016,03,04,07,11,27.40
2016,03,04,07,12,27.40
2016,03,04,07,13,22.50
2016,03,04,07,14,22.50
2016,03,04,07,15,24.20
2016,03,04,07,16,30.60
2016,03,04,07,17,20.90
2016,03,04,07,18,32.20
2016,03,04,07,19,22.50
2016,03,04,07,20,20.90
2016,03,04,07,21,29.00
2016,03,04,07,22,29.00
2016,03,04,07,23,35.40
2016,03,04,07,24,35.40
2016,03,04,07,25,29.00
2016,03,04,07,26,29.00
2016,03,04,07,27,29.00
2016,03,04,07,28,17.70
2016,03,04,07,29,29.00
2016,03,04,07,30,27.40
2016,03,04,07,31,25.70
2016,03,04,07,32,24.20
2016,03,04,07,33,19.30
2016,03,04,07,34,25.70
2016,03,04,07,35,22.50
2016,03,04,07,36,38.60
2016,03,04,07,37,27.40
2016,03,04,07,38,27.40
2016,03,04,07,39,33.80
2016,03,04,07,40,24.20
2016,03,04,07,41,25.70
2016,03,04,07,42,24.20
2016,03,04,07,43,25.70
2016,03,04,07,44,24.20
2016,03,04,07,45,25.70
2016,03,04,07,46,27.40
2016,03,04,07,47,25.70
2016,03,04,07,48,27.40
2016,03,04,07,49,32.20
2016,03,04,07,50,25.70
2016,03,04,07,51,33.80
2016,03,04,07,52,29.00
2016,03,04,07,53,35.40
2016,03,04,07,54,24.20
2016,03,04,07,55,24.20
2016,03,04,07,56,17.70
2016,03,04,07,57,27.40
2016,03,04,07,58,35.40
2016,03,04,07,59,27.40
2016,03,04,08,00,19.30
2016,03,04,08,01,27.40
2016,03,04,08,02,25.70
2016,03,04,08,03,33.80
2016,03,04,08,04,41.80
2016,03,04,08,05,24.20
2016,03,04,08,06,30.60
2016,03,04,08,07,20.90
2016,03,04,08,08,29.00
2016,03,04,08,09,27.40
2016,03,04,08,10,29.00
2016,03,04,08,11,25.70
2016,03,04,08,12,29.00
2016,03,04,08,13,29.00
2016,03,04,08,14,22.50
2016,03,04,08,15,25.70
2016,03,04,08,16,22.50
2016,03,04,08,17,24.20
2016,03,04,08,18,25.70
2016,03,04,08,19,24.20
2016,03,04,08,20,30.60
2016,03,04,08,21,20.90
2016,03,04,08,22,30.60
2016,03,04,08,23,35.40
2016,03,04,08,24,25.70
2016,03,04,08,25,30.60
2016,03,04,08,26,27.40
2016,03,04,08,27,27.40
2016,03,04,08,28,20.90
2016,03,04,08,29,29.00
2016,03,04,08,30,20.90
2016,03,04,08,31,29.00
2016,03,04,08,32,29.00
2016,03,04,08,33,29.00
2016,03,04,08,34,25.70
2016,03,04,08,35,24.20
2016,03,04,08,36,27.40
2016,03,04,08,37,35.40
2016,03,04,08,38,27.40
2016,03,04,08,39,32.20
2016,03,04,08,40,35.40
2016,03,04,08,41,40.20
2016,03,04,08,42,35.40
2016,03,04,08,43,29.00
2016,03,04,08,44,35.40
2016,03,04,08,45,24.20
2016,03,04,08,46,32.20
2016,03,04,08,47,22.50
2016,03,04,08,48,30.60
2016,03,04,08,49,30.60
2016,03,04,08,50,33.80
2016,03,04,08,51,37.00
2016,03,04,08,52,35.40
2016,03,04,08,53,29.00
2016,03,04,08,54,27.40
2016,03,04,08,55,30.60
2016,03,04,08,56,33.80
2016,03,04,08,57,41.80
2016,03,04,08,58,43.50
2016,03,04,08,59,33.80
2016,03,04,09,00,40.20
2016,03,04,09,01,27.40
2016,03,04,09,02,19.30
2016,03,04,09,03,35.40
2016,03,04,09,04,38.60
2016,03,04,09,05,27.40
2016,03,04,09,06,33.80
2016,03,04,09,07,30.60
2016,03,04,09,08,25.70
2016,03,04,09,09,30.60
2016,03,04,09,10,25.70
2016,03,04,09,11,29.00
2016,03,04,09,12,32.20
2016,03,04,09,13,32.20
2016,03,04,09,14,32.20
2016,03,04,09,15,30.60
2016,03,04,09,16,20.90
2016,03,04,09,17,25.70
2016,03,04,09,18,29.00
2016,03,04,09,19,30.60
2016,03,04,09,20,27.40
2016,03,04,09,21,35.40
2016,03,04,09,22,43.50
2016,03,04,09,23,37.00
2016,03,04,09,24,45.10
2016,03,04,09,25,35.40
2016,03,04,09,26,40.20
2016,03,04,09,27,38.60
2016,03,04,09,28,33.80
2016,03,04,09,29,32.20
2016,03,04,09,30,37.00
2016,03,04,09,31,25.70
2016,03,04,09,32,32.20
2016,03,04,09,33,29.00
2016,03,04,09,34,35.40
2016,03,04,09,35,30.60
2016,03,04,09,36,29.00
2016,03,04,09,37,20.90
2016,03,04,09,38,27.40
2016,03,04,09,39,25.70
2016,03,04,09,40,29.00
2016,03,04,09,41,22.50
2016,03,04,09,42,20.90
2016,03,04,09,43,35.40
2016,03,04,09,44,22.50
2016,03,04,09,45,35.40
2016,03,04,09,46,30.60
2016,03,04,09,47,32.20
2016,03,04,09,48,16.10
2016,03,04,09,49,29.00
2016,03,04,09,50,32.20
2016,03,04,09,51,45.10
2016,03,04,09,52,35.40
2016,03,04,09,53,29.00
2016,03,04,09,54,27.40
2016,03,04,09,55,33.80
2016,03,04,09,56,38.60
2016,03,04,09,57,35.40
2016,03,04,09,58,30.60
2016,03,04,09,59,32.20
2016,03,04,10,00,32.20
2016,03,04,10,01,45.10
2016,03,04,10,02,41.80
2016,03,04,10,03,30.60
2016,03,04,10,04,33.80
2016,03,04,10,05,25.70
2016,03,04,10,06,35.40
2016,03,04,10,07,35.40
2016,03,04,10,08,32.20
2016,03,04,10,09,33.80
2016,03,04,10,10,30.60
2016,03,04,10,11,32.20
2016,03,04,10,12,46.70
2016,03,04,10,13,33.80
2016,03,04,10,14,20.90
2016,03,04,10,15,24.20
2016,03,04,10,16,43.50
2016,03,04,10,17,37.00
2016,03,04,10,18,38.60
2016,03,04,10,19,27.40
2016,03,04,10,20,30.60
2016,03,04,10,21,35.40
2016,03,04,10,22,27.40
2016,03,04,10,23,37.00
2016,03,04,10,24,37.00
2016,03,04,10,25,41.80
2016,03,04,10,26,41.80
2016,03,04,10,27,33.80
2016,03,04,10,28,32.20
2016,03,04,10,29,32.20
2016,03,04,10,30,38.60
2016,03,04,10,31,35.40
2016,03,04,10,32,27.40
2016,03,04,10,33,27.40
2016,03,04,10,34,35.40
2016,03,04,10,35,22.50
2016,03,04,10,36,40.20
2016,03,04,10,37,38.60
2016,03,04,10,38,40.20
2016,03,04,10,39,41.80
2016,03,04,10,40,40.20
2016,03,04,10,41,38.60
2016,03,04,10,42,40.20
2016,03,04,10,43,33.80
2016,03,04,10,44,33.80
2016,03,04,10,45,40.20
2016,03,04,10,46,40.20
2016,03,04,10,47,25.70
2016,03,04,10,48,27.40
2016,03,04,10,49,32.20
2016,03,04,10,50,33.80
2016,03,04,10,51,35.40
2016,03,04,10,52,35.40
2016,03,04,10,53,25.70
2016,03,04,10,54,27.40
2016,03,04,10,55,25.70
2016,03,04,10,56,24.20
2016,03,04,10,57,24.20
2016,03,04,10,58,32.20
2016,03,04,10,59,30.60
2016,03,04,11,00,38.60
2016,03,04,11,01,37.00
2016,03,04,11,02,25.70
2016,03,04,11,03,46.70
2016,03,04,11,04,45.10
2016,03,04,11,05,41.80
2016,03,04,11,06,30.60
2016,03,04,11,07,38.60
2016,03,04,11,08,45.10
2016,03,04,11,09,41.80
2016,03,04,11,10,38.60
2016,03,04,11,11,40.20
2016,03,04,11,12,29.00
2016,03,04,11,13,45.10
2016,03,04,11,14,41.80
2016,03,04,11,15,32.20
2016,03,04,11,16,24.20
2016,03,04,11,17,40.20
2016,03,04,11,18,35.40
2016,03,04,11,19,35.40
2016,03,04,11,20,46.70
2016,03,04,11,21,35.40
2016,03,04,11,22,38.60
2016,03,04,11,23,40.20
2016,03,04,11,24,43.50
2016,03,04,11,25,38.60
2016,03,04,11,26,35.40
2016,03,04,11,27,62.70
2016,03,04,11,28,43.50
2016,03,04,11,29,32.20
2016,03,04,11,30,33.80
2016,03,04,11,31,33.80
2016,03,04,11,32,37.00
2016,03,04,11,33,27.40
2016,03,04,11,34,30.60
2016,03,04,11,35,41.80
2016,03,04,11,36,25.70
2016,03,04,11,37,45.10
2016,03,04,11,38,30.60
2016,03,04,11,39,25.70
2016,03,04,11,40,35.40
2016,03,04,11,41,32.20
2016,03,04,11,42,33.80
2016,03,04,11,43,30.60
2016,03,04,11,44,35.40
2016,03,04,11,45,25.70
2016,03,04,11,46,37.00
2016,03,04,11,47,41.80
2016,03,04,11,48,25.70
2016,03,04,11,49,43.50
2016,03,04,11,50,30.60
2016,03,04,11,51,38.60
2016,03,04,11,52,24.20
2016,03,04,11,53,41.80
2016,03,04,11,54,46.70
2016,03,04,11,55,45.10
2016,03,04,11,56,35.40
2016,03,04,11,57,37.00
2016,03,04,11,58,38.60
2016,03,04,11,59,29.00
2016,03,04,12,00,51.50
2016,03,04,12,01,48.30
2016,03,04,12,02,33.80
2016,03,04,12,03,35.40
2016,03,04,12,04,38.60
2016,03,04,12,05,40.20
2016,03,04,12,06,32.20
2016,03,04,12,07,27.40
2016,03,04,12,08,25.70
2016,03,04,12,09,27.40
2016,03,04,12,10,30.60
2016,03,04,12,11,25.70
2016,03,04,12,12,29.00
2016,03,04,12,13,30.60
2016,03,04,12,14,45.10
2016,03,04,12,15,33.80
2016,03,04,12,16,32.20
2016,03,04,12,17,38.60
2016,03,04,12,18,29.00
2016,03,04,12,19,41.80
2016,03,04,12,20,32.20
2016,03,04,12,21,33.80
2016,03,04,12,22,24.20
2016,03,04,12,23,30.60
2016,03,04,12,24,37.00
2016,03,04,12,25,37.00
2016,03,04,12,26,33.80
2016,03,04,12,27,29.00
2016,03,04,12,28,29.00
2016,03,04,12,29,27.40
2016,03,04,12,30,33.80
2016,03,04,12,31,35.40
2016,03,04,12,32,22.50
2016,03,04,12,33,29.00
2016,03,04,12,34,33.80
2016,03,04,12,35,30.60
2016,03,04,12,36,35.40
2016,03,04,12,37,32.20
2016,03,04,12,38,32.20
2016,03,04,12,39,35.40
2016,03,04,12,40,25.70
2016,03,04,12,41,27.40
2016,03,04,12,42,30.60
2016,03,04,12,43,37.00
2016,03,04,12,44,27.40
2016,03,04,12,45,29.00
2016,03,04,12,46,24.20
2016,03,04,12,47,22.50
2016,03,04,12,48,22.50
2016,03,04,12,49,24.20
2016,03,04,12,50,20.90
2016,03,04,12,51,25.70
2016,03,04,12,52,27.40
2016,03,04,12,53,32.20
2016,03,04,12,54,37.00
2016,03,04,12,55,27.40
2016,03,04,12,56,24.20
2016,03,04,12,57,22.50
2016,03,04,12,58,24.20
2016,03,04,12,59,24.20
2016,03,04,13,00,19.30
2016,03,04,13,01,24.20
2016,03,04,13,02,25.70
2016,03,04,13,03,33.80
2016,03,04,13,04,27.40
2016,03,04,13,05,29.00
2016,03,04,13,06,32.20
2016,03,04,13,07,37.00
2016,03,04,13,08,22.50
2016,03,04,13,09,25.70
2016,03,04,13,10,32.20
2016,03,04,13,11,22.50
2016,03,04,13,12,14.50
2016,03,04,13,13,22.50
2016,03,04,13,14,19.30
2016,03,04,13,15,19.30
2016,03,04,13,16,16.10
2016,03,04,13,17,25.70
2016,03,04,13,18,16.10
2016,03,04,13,19,20.90
2016,03,04,13,20,19.30
2016,03,04,13,21,22.50
2016,03,04,13,22,29.00
2016,03,04,13,23,20.90
2016,03,04,13,24,20.90
2016,03,04,13,25,20.90
2016,03,04,13,26,25.70
2016,03,04,13,27,16.10
2016,03,04,13,28,19.30
2016,03,04,13,29,17.70
2016,03,04,13,30,8.10
2016,03,04,13,31,14.50
2016,03,04,13,32,20.90
2016,03,04,13,33,22.50
2016,03,04,13,34,20.90
2016,03,04,13,35,17.70
2016,03,04,13,36,29.00
2016,03,04,13,37,20.90
2016,03,04,13,38,19.30
2016,03,04,13,39,16.10
2016,03,04,13,40,16.10
2016,03,04,13,41,17.70
2016,03,04,13,42,14.50
2016,03,04,13,43,20.90
2016,03,04,13,44,16.10
2016,03,04,13,45,11.30
2016,03,04,13,46,24.20
2016,03,04,13,47,16.10
2016,03,04,13,48,12.90
2016,03,04,13,49,14.50
2016,03,04,13,50,16.10
2016,03,04,13,51,14.50
2016,03,04,13,52,9.60
2016,03,04,13,53,12.90
2016,03,04,13,54,11.30
2016,03,04,13,55,9.60
2016,03,04,13,56,11.30
2016,03,04,13,57,16.10
2016,03,04,13,58,11.30
2016,03,04,13,59,16.10
2016,03,04,14,00,17.70
2016,03,04,14,01,12.90
2016,03,04,14,02,11.30
2016,03,04,14,03,12.90
2016,03,04,14,04,20.90
2016,03,04,14,05,16.10
2016,03,04,14,06,16.10
2016,03,04,14,07,14.50
2016,03,04,14,08,20.90
2016,03,04,14,09,24.20
2016,03,04,14,10,16.10
2016,03,04,14,11,11.30
2016,03,04,14,12,14.50
2016,03,04,14,13,17.70
2016,03,04,14,14,20.90
2016,03,04,14,15,19.30
2016,03,04,14,16,17.70
2016,03,04,14,17,16.10
2016,03,04,14,18,17.70
2016,03,04,14,19,14.50
2016,03,04,14,20,9.60
2016,03,04,14,21,17.70
2016,03,04,14,22,12.90
2016,03,04,14,23,12.90
2016,03,04,14,24,17.70
2016,03,04,14,25,19.30
2016,03,04,14,26,20.90
2016,03,04,14,27,24.20
2016,03,04,14,28,19.30
2016,03,04,14,29,20.90
2016,03,04,14,30,19.30
2016,03,04,14,31,17.70
2016,03,04,14,32,24.20
2016,03,04,14,33,17.70
2016,03,04,14,34,14.50
2016,03,04,14,35,11.30
2016,03,04,14,36,11.30
2016,03,04,14,37,16.10
2016,03,04,14,38,20.90
2016,03,04,14,39,17.70
2016,03,04,14,40,22.50
2016,03,04,14,41,14.50
2016,03,04,14,42,16.10
2016,03,04,14,43,12.90
2016,03,04,14,44,17.70
2016,03,04,14,45,17.70
2016,03,04,14,46,16.10
2016,03,04,14,47,16.10
2016,03,04,14,48,12.90
2016,03,04,14,49,9.60
2016,03,04,14,50,11.30
2016,03,04,14,51,17.70
2016,03,04,14,52,9.60
2016,03,04,14,53,16.10
2016,03,04,14,54,14.50
2016,03,04,14,55,14.50
2016,03,04,14,56,11.30
2016,03,04,14,57,9.60
2016,03,04,14,58,14.50
2016,03,04,14,59,14.50
2016,03,04,15,00,19.30
2016,03,04,15,01,20.90
2016,03,04,15,02,20.90
2016,03,04,15,03,22.50
2016,03,04,15,04,14.50
2016,03,04,15,05,17.70
2016,03,04,15,06,17.70
2016,03,04,15,07,17.70
2016,03,04,15,08,11.30
2016,03,04,15,09,9.60
2016,03,04,15,10,9.60
2016,03,04,15,11,9.60
2016,03,04,15,12,14.50
2016,03,04,15,13,11.30
2016,03,04,15,14,14.50
2016,03,04,15,15,12.90
2016,03,04,15,16,11.30
2016,03,04,15,17,14.50
2016,03,04,15,18,16.10
2016,03,04,15,19,11.30
2016,03,04,15,20,11.30
2016,03,04,15,21,11.30
2016,03,04,15,22,14.50
2016,03,04,15,23,14.50
2016,03,04,15,24,8.10
2016,03,04,15,25,16.10
2016,03,04,15,26,14.50
2016,03,04,15,27,14.50
2016,03,04,15,28,19.30
2016,03,04,15,29,16.10
2016,03,04,15,30,11.30
2016,03,04,15,31,14.50
2016,03,04,15,32,11.30
2016,03,04,15,33,14.50
2016,03,04,15,34,9.60
2016,03,04,15,35,14.50
2016,03,04,15,36,11.30
2016,03,04,15,37,12.90
2016,03,04,15,38,9.60
2016,03,04,15,39,11.30
2016,03,04,15,40,11.30
2016,03,04,15,41,9.60
2016,03,04,15,42,11.30
2016,03,04,15,43,9.60
2016,03,04,15,44,8.10
2016,03,04,15,45,8.10
2016,03,04,15,46,11.30
2016,03,04,15,47,8.10
2016,03,04,15,48,9.60
2016,03,04,15,49,8.10
2016,03,04,15,50,11.30
2016,03,04,15,51,11.30
2016,03,04,15,52,9.60
2016,03,04,15,53,11.30
2016,03,04,15,54,8.10
2016,03,04,15,55,11.30
2016,03,04,15,56,11.30
2016,03,04,15,57,12.90
2016,03,04,15,58,14.50
2016,03,04,15,59,12.90
2016,03,04,16,00,12.90
2016,03,04,16,01,14.50
2016,03,04,16,02,14.50
2016,03,04,16,03,14.50
2016,03,04,16,04,14.50
2016,03,04,16,05,14.50
2016,03,04,16,06,17.70
2016,03,04,16,07,14.50
2016,03,04,16,08,16.10
2016,03,04,16,09,19.30
2016,03,04,16,10,16.10
2016,03,04,16,11,17.70
2016,03,04,16,12,17.70
2016,03,04,16,13,20.90
2016,03,04,16,14,12.90
2016,03,04,16,15,16.10
2016,03,04,16,16,19.30
2016,03,04,16,17,19.30
2016,03,04,16,18,14.50
2016,03,04,16,19,11.30
2016,03,04,16,20,17.70
2016,03,04,16,21,11.30
2016,03,04,16,22,12.90
2016,03,04,16,23,17.70
2016,03,04,16,24,19.30
2016,03,04,16,25,12.90
2016,03,04,16,26,16.10
2016,03,04,16,27,12.90
2016,03,04,16,28,19.30
2016,03,04,16,29,16.10
2016,03,04,16,30,12.90
2016,03,04,16,31,19.30
2016,03,04,16,32,17.70
2016,03,04,16,33,24.20
2016,03,04,16,34,20.90
2016,03,04,16,35,14.50
2016,03,04,16,36,20.90
2016,03,04,16,37,16.10
2016,03,04,16,38,22.50
2016,03,04,16,39,19.30
2016,03,04,16,40,12.90
2016,03,04,16,41,17.70
2016,03,04,16,42,16.10
2016,03,04,16,43,22.50
2016,03,04,16,44,17.70
2016,03,04,16,45,12.90
2016,03,04,16,46,19.30
2016,03,04,16,47,22.50
2016,03,04,16,48,14.50
2016,03,04,16,49,19.30
2016,03,04,16,50,22.50
2016,03,04,16,51,24.20
2016,03,04,16,52,14.50
2016,03,04,16,53,19.30
2016,03,04,16,54,20.90
2016,03,04,16,55,25.70
2016,03,04,16,56,24.20
2016,03,04,16,57,24.20
2016,03,04,16,58,17.70
2016,03,04,16,59,22.50
2016,03,04,17,00,22.50
2016,03,04,17,01,16.10
2016,03,04,17,02,24.20
2016,03,04,17,03,19.30
2016,03,04,17,04,20.90
2016,03,04,17,05,29.00
2016,03,04,17,06,22.50
2016,03,04,17,07,19.30
2016,03,04,17,08,25.70
2016,03,04,17,09,22.50
2016,03,04,17,10,20.90
2016,03,04,17,11,22.50
2016,03,04,17,12,17.70
2016,03,04,17,13,33.80
2016,03,04,17,14,27.40
2016,03,04,17,15,32.20
2016,03,04,17,16,27.40
2016,03,04,17,17,19.30
2016,03,04,17,18,20.90
2016,03,04,17,19,14.50
2016,03,04,17,20,24.20